This demonstration page uses our WeatherBlox Daily Observations layout. Learn more.

39.92423, -83.80882

Hourly Observations for June 17, 2019

Temp ( °F °C ) Dew Point ( °F °C ) Humidity (%) Winds ( mph kmh ) Pressure ( in mb ) Visibility ( mi km ) Precip ( " mm )
12:34 am 00:34 Mostly Cloudy with Light Rain 70 21 68 20 94 94 SSW 15 24 29.89 1012 10 16.0934 0 0.0254
12:56 am 00:56 Cloudy with Light Rain 69 20.6 68 20 96 96 SSW 13 20 29.91 1013 10 16.0934 0 0.0254
1:16 am 01:16 Cloudy 68 20 68 20 100 100 SW 9 15 29.9 1013 10 16.0934 0 0
1:33 am 01:33 Cloudy 68 20 68 20 100 100 SW 10 17 29.89 1012 10 16.0934 0 0
1:53 am 01:53 Cloudy 68 20 68 20 100 100 WSW 8 13 29.89 1012 10 16.0934 0 0
1:56 am 01:56 Cloudy 68 20 68 20 100 100 WSW 8 13 29.91 1013 10 16.0934 0 0
2:35 am 02:35 Cloudy 68 20 68 20 100 100 WSW 8 13 29.9 1013 10 16.0934 0 0
2:53 am 02:53 Cloudy 68 20 68 20 100 100 SW 9 15 29.9 1013 10 16.0934 0 0
3:31 am 03:31 Cloudy with Light Rain 66 19 66 19 100 100 SSW 6 9 29.92 1013 10 16.0934 0 0.0254
3:56 am 03:56 Cloudy 67 19.4 67 19.4 100 100 SSW 8 13 29.91 1013 10 16.0934 0 0.0254
4:39 am 04:39 Partly Cloudy 66 19 66 19 100 100 SW 5 7 29.9 1012 8 12.87472 0 0.0254
4:56 am 04:56 Mostly Cloudy with Mist and Fog 66 18.9 66 18.9 100 100 SSW 7 11 29.91 1013 6 9.65604 0 0.0254
5:04 am 05:04 Mostly Cloudy with Mist and Fog 66 19 66 19 100 100 S 6 9 29.91 1013 6 9.65604 0 0
5:56 am 05:56 Cloudy 66 18.9 66 18.9 100 100 S 6 9 29.93 1014 8 12.87472 0 0
6:13 am 06:13 Cloudy with Light Rain 66 19 66 19 100 100 SSW 5 7 29.93 1013 9 14.48406 0 0.0254
6:24 am 06:24 Cloudy with Light Rain 66 19 66 19 100 100 SSW 5 7 29.94 1014 6 9.65604 0 0.0254
6:56 am 06:56 Cloudy with Light Rain 66 18.9 66 18.9 100 100 SSW 5 7 29.96 1014 4 6.43736 0.01 0.254
7:05 am 07:05 Cloudy with Light Rain 66 19 66 19 100 100 SSW 6 9 29.95 1014 6 9.65604 0 0.0254
7:56 am 07:56 Cloudy 66 18.9 66 18.9 100 100 SW 8 13 29.96 1015 10 16.0934 0 0.0254
8:56 am 08:56 Cloudy 68 20 68 20 100 100 SSW 8 13 29.97 1015 10 16.0934 0 0
9:14 am 09:14 Cloudy 68 20 68 20 100 100 SW 9 15 29.96 1015 10 16.0934 0 0
9:56 am 09:56 Cloudy 69 20.6 69 20.6 100 100 SW 7 11 29.98 1015 10 16.0934 0 0
10:56 am 10:56 Cloudy 70 21.1 70 21.1 100 100 SSW 6 9 30 1016 10 16.0934 0 0
11:10 am 11:10 Cloudy 70 21 70 21 100 100 SSW 8 13 29.98 1015 10 16.0934 0 0
11:35 am 11:35 Cloudy 70 21 70 21 100 100 SW 8 13 29.98 1015 10 16.0934 0 0
11:56 am 11:56 Cloudy 71 21.7 70 21.1 96 96 SW 7 11 30.01 1016 10 16.0934 0 0
12:07 pm 12:07 Cloudy 72 22 70 21 94 94 WSW 8 13 29.98 1015 10 16.0934 0 0
1:39 pm 13:39 Cloudy 72 22 72 22 100 100 SSW 7 11 29.97 1015 10 16.0934 0.01 0.254
1:47 pm 13:47 Cloudy 72 22 72 22 100 100 SSW 6 9 29.97 1015 10 16.0934 0.01 0.254
1:56 pm 13:56 Cloudy with Light Rain 72 22.2 71 21.7 97 97 SW 6 9 29.99 1016 10 16.0934 0.01 0.254
2:37 pm 14:37 Cloudy 73 23 72 22 94 94 WSW 3 6 29.96 1015 10 16.0934 0 0.0254
2:56 pm 14:56 Cloudy 74 23.3 70 21.1 88 88 VRB 7 11 29.98 1015 9 14.48406 0 0.0254
3:03 pm 15:03 Cloudy 73 23 72 22 94 94 W 7 11 29.96 1015 10 16.0934 0 0
3:37 pm 15:37 Partly Cloudy 75 24 70 21 83 83 W 3 6 29.94 1014 10 16.0934 0 0
3:48 pm 15:48 Mostly Cloudy 75 24 70 21 83 83 SW 5 7 29.94 1014 10 16.0934 0 0
3:56 pm 15:56 Mostly Cloudy 75 23.9 70 21.1 84 84 Calm 29.97 1015 10 16.0934 0 0
4:56 pm 16:56 Cloudy 76 24.4 70 21.1 82 82 Calm 29.96 1015 10 16.0934 0 0
5:37 pm 17:37 Mostly Cloudy 75 24 70 21 83 83 N 3 6 29.92 1013 10 16.0934 0 0
5:56 pm 17:56 Mostly Cloudy with Light Rain 75 23.9 70 21.1 84 84 Calm 29.94 1014 10 16.0934 0 0.0254
6:56 pm 18:56 Mostly Cloudy 74 23.3 72 22.2 94 94 ENE 3 6 29.94 1014 10 16.0934 0.02 0.508
7:33 pm 19:33 Cloudy with Heavy Rain 72 22 72 22 100 100 ESE 7 11 29.9 1013 3 4.82802 0.01 0.254
7:36 pm 19:36 Cloudy with Heavy Thunderstorms 72 22 72 22 100 100 ESE 5 7 29.91 1013 1.75 2.816345 0.02 0.508
7:45 pm 19:45 Cloudy with Thunderstorms 72 22 72 22 100 100 Calm 29.91 1013 2 3.21868 0.04 1.016
7:47 pm 19:47 Cloudy with Thunderstorms 72 22 72 22 100 100 SE 3 6 29.92 1013 3 4.82802 0.05 1.27
7:56 pm 19:56 Cloudy with Heavy Thunderstorms 71 21.7 71 21.7 100 100 SW 7 11 29.96 1014 4 6.43736 0.07 1.778
8:00 pm 20:00 Cloudy with Heavy Thunderstorms 72 22 72 22 100 100 WSW 7 11 29.93 1014 3 4.82802 0.01 0.254
8:04 pm 20:04 Cloudy with Heavy Thunderstorms 72 22 72 22 100 100 WNW 10 17 29.93 1014 2.5 4.02335 0.03 0.762
8:16 pm 20:16 Cloudy with Heavy Thunderstorms 70 21 70 21 100 100 E 9 15 29.92 1013 1 1.60934 0.06 1.524
8:21 pm 20:21 Cloudy with Heavy Thunderstorms 70 21 70 21 100 100 ENE 9 15 29.92 1013 1.25 2.011675 0.08 2.032
8:26 pm 20:26 Cloudy with Light Thunderstorms 70 21 70 21 100 100 E 6 9 29.93 1013 2.5 4.02335 0.1 2.54
8:33 pm 20:33 Cloudy with Nearby Thunderstorms 70 21 70 21 100 100 Calm 29.93 1013 9 14.48406 0.13 3.302
8:37 pm 20:37 Cloudy with Nearby Thunderstorms 70 21 70 21 100 100 Calm 29.94 1014 9 14.48406 0.14 3.556
8:56 pm 20:56 Cloudy with Rain 69 20.6 69 20.6 100 100 Calm 29.96 1014 10 16.0934 0.21 5.334
9:13 pm 21:13 Cloudy with Rain 70 21 70 21 100 100 Calm 29.93 1013 4 6.43736 0.06 1.524
9:28 pm 21:28 Cloudy with Rain 68 20 68 20 100 100 E 7 11 29.9 1013 5 8.0467 0.11 2.794
9:36 pm 21:36 Cloudy with Rain 68 20 68 20 100 100 ESE 10 17 29.88 1012 7 11.26538 0.13 3.302
9:41 pm 21:41 Cloudy with Nearby Thunderstorms 70 21 70 21 100 100 E 10 17 29.88 1012 9 14.48406 0.15 3.81
9:48 pm 21:48 Mostly Cloudy with Nearby Thunderstorms 68 20 68 20 100 100 E 9 15 29.88 1012 10 16.0934 0.17 4.318
9:56 pm 21:56 Partly Cloudy with Light Rain 68 20 68 20 100 100 E 6 9 29.9 1013 10 16.0934 0.19 4.826
10:22 pm 22:22 Mostly Cloudy 68 20 68 20 100 100 WSW 6 9 29.93 1014 10 16.0934 0.08 2.032
10:56 pm 22:56 Cloudy 68 20 68 20 100 100 SW 7 11 29.97 1015 10 16.0934 0.15 3.81
11:16 pm 23:16 Cloudy 66 19 66 19 100 100 SW 8 13 29.96 1014 10 16.0934 0.04 1.016
11:56 pm 23:56 Cloudy 67 19.4 67 19.4 100 100 SW 10 17 29.97 1015 9 14.48406 0.11 2.794

Powered by AerisWeather